Miscellaneous Local Product
Issued by NWS North Platte, NE

Home | Current Version | Previous Version | Text Only | Print | Product List | Glossary On
Versions: 1 2 3 4 5 6 7 8 9 10 11 12 13 14 15 16 17 18 19 20 21 22 23 24 25 26 27 28 29 30 31 32 33 34 35 36 37 38 39 40 41 42 43 44 45 46 47 48 49 50
000
AXUS43 KLBF 200610
MISLBF


WESTERN AND NORTH CENTRAL NEBRASKA HOURLY WEATHER ROUNDUP
NATIONAL WEATHER SERVICE NORTH PLATTE NE
100 AM CDT SAT SEP 20 2014

***STATIONS NOT REPORTING VARIABLES SUCH AS SKY/WEATHER OR
PRESSURE ARE PROVIDED BY THE NEBRASKA DEPARTMENT OF
ROADS...RAWS...AND APRS NETWORKS...AND ARE NOT UNDER
NATIONAL WEATHER SERVICE QUALITY CONTROL***

...OBSERVATIONS IN AND NEAR THE EASTERN PANHANDLE OF NEBRASKA...

CITY           SKY/WX    TMP DP  RH WIND       PRES   REMARKS
PINE RIDGE     CLEAR     53  51  93 NE3       29.98R
CHADRON        PTCLDY    57  52  83 W6        29.99R
ALLIANCE       PTCLDY    60  51  72 N12       29.98R
SIDNEY         MOCLDY    62  55  77 NW9       29.99R
WHITECLAY        N/A     52  48  87 CALM        N/A
RUSHVILLE        N/A     61  49  65 NE12        N/A
LISCO            N/A     71  54  54 CALM        N/A
BIG SPRINGS      N/A     63  58  83 CALM        N/A
$$

...OBSERVATIONS IN NORTH CENTRAL NEBRASKA...

CITY           SKY/WX    TMP DP  RH WIND       PRES   REMARKS
VALENTINE      PTCLDY    60  56  86 CALM      29.91R
THEDFORD       MOCLDY    64  58  83 N7        29.92R
AINSWORTH      PTCLDY    62  55  80 CALM      29.90S
O`NEILL        PTCLDY    66  61  86 W9        29.87R
ORD            PTCLDY    74  60  61 SW5       29.84R
BROKEN BOW     MOCLDY    70  61  73 S3        29.87R
SPRINGVIEW       N/A     61  57  88 CALM        N/A
ROSE             N/A     73  64  71 N7          N/A
NEWPORT          N/A     72  59  62 SW6         N/A
COMSTOCK         N/A     78  65  63 SW7         N/A
CHAMBERS         N/A     64  61  89 CALM        N/A
$$

...OBSERVATIONS IN SOUTHWEST NEBRASKA AND FAR NORTHEAST COLORADO...

CITY           SKY/WX    TMP DP  RH WIND       PRES   REMARKS
WRAY           FAIR      77  56  48 SW9       29.92R
HOLYOKE        FAIR      70  52  52 NW6       29.93R
IMPERIAL       CLOUDY    73  60  63 S13       29.90S
OGALLALA       PTCLDY    69  59  70 E6        29.90S
NORTH PLATTE   MOCLDY    69  60  73 W12       29.92R
MCCOOK         PTCLDY    72  59  63 S10       29.89R
LEXINGTON      PTCLDY    75  60  59 SW15G22   29.87R
PAXTON           N/A     68  59  73 CALM        N/A
SUTHERLAND       N/A     75  63  64 S3          N/A
BRADY            N/A     73  60  64 CALM        N/A
GOTHENBURG       N/A     76  56  49 SW12        N/A
CALLAWAY         N/A     65  62  89 CALM        N/A
$$

...SOME WEATHER OBSERVATIONS FROM AROUND THE REGION...

CITY           SKY/WX    TMP DP  RH WIND       PRES   REMARKS
DENVER         PTCLDY    64  47  53 S9        30.09R
LARAMIE        CLEAR     54  40  59 S5        30.22S
CHEYENNE       CLEAR     61  41  47 N5        30.13R
SCOTTSBLUFF    CLEAR     61  51  70 N8        30.00R
RAPID CITY     MOCLDY    65  48  54 NW10      29.99R
PIERRE         CLOUDY    70  52  52 NW14G24   29.83R
WINNER         FAIR      65  59  81 W6        29.87R
SIOUX FALLS    MOCLDY    68  61  78 CALM      29.77R
OMAHA          PTCLDY    74  67  78 S14       29.80F
GRAND ISLAND   CLEAR     76  61  59 SW21G26   29.84R
KANSAS CITY    CLEAR     68  66  93 S12       29.94F
WICHITA        PTCLDY    71  67  87 S10       29.97R
HAYS           CLEAR     72  59  64 S15       29.93S
LIBERAL        CLEAR     66  57  72 S7        30.01S
GOODLAND       PTCLDY    68  61  78 S14       29.97S
$$



USA.gov is the U.S. government's official web portal to all federal, state and local government web resources and services.